Overview Statistics Trail Chart Weather Telemetry Raw packets
 

This is the latest recevied weather packets stored in our database for station/object IZ8GMP-13. If no packets are shown the sender has not sent any weather packets the latest 10 day(s).

<< 6 7 8 9 10 11 12 >>
Time Temp. Humidity Pressure Rain* Wind** Luminosity Snow
1788358429 30.56° C 48% 1017 hPa - - - -
1788357225 30.56° C 51% 1016.9 hPa - - - -
1788354818 30.56° C 57% 1017.2 hPa - - - -
1788353615 30.56° C 58% 1017.4 hPa - - - -
1788352412 30.56° C 58% 1017.6 hPa - - - -
1788351208 30° C 60% 1017.8 hPa - - - -
1788350005 28.89° C 65% 1017.8 hPa - - - -
1788348801 28.33° C 66% 1017.9 hPa - - - -
1788347598 28.33° C 66% 1017.9 hPa - - - -
1788345191 28.33° C 66% 1018.1 hPa - - - -
1788343987 28.33° C 68% 1018.2 hPa - - - -
1788342784 28.33° C 66% 1018.2 hPa - - - -
1788341580 28.33° C 66% 1018.3 hPa - - - -
1788340377 28.89° C 65% 1018.3 hPa - - - -
1788339173 29.44° C 63% 1018.2 hPa - - - -
1788337970 28.89° C 63% 1018.1 hPa - - - -
1788336766 28.89° C 64% 1017.9 hPa - - - -
1788335563 28.33° C 66% 1017.6 hPa - - - -
1788334360 28.33° C 66% 1017.5 hPa - - - -
1788331953 28.89° C 65% 1017.2 hPa - - - -
1788330749 28.89° C 65% 1017.2 hPa - - - -
1788328342 28.89° C 63% 1017.3 hPa - - - -
1788327139 28.33° C 64% 1017.3 hPa - - - -
1788325935 27.78° C 66% 1017.3 hPa - - - -
1788324732 27.78° C 67% 1017.3 hPa - - - -

* Rain since midnight (hover to see other rain measurements)
** Current wind speed in m/s (hover to see current wind gust speed)